| time (UTC) | temp C | wind direction | speed KPH | gust KPH | rain 1hr cm | rain 24hr cm | rain mn cm | humidity % | barometer mb |
| 20260831053041 | 21 | 153 | 0.0 | 4.8 | 0.00 | 0.00 | 0.00 | 49 | 1027.7 |
| 20260831051521 | 20 | 221 | 1.6 | 9.7 | 0.00 | 0.00 | 0.00 | 51 | 1027.8 |
| 20260831050014 | 21 | 252 | 1.6 | 4.8 | 0.00 | 0.00 | 0.00 | 51 | 1027.7 |
| 20260831044602 | 21 | 178 | 0.0 | 8.0 | 0.00 | 0.00 | 0.00 | 51 | 1027.7 |
| 20260831043050 | 20 | 252 | 0.0 | 8.0 | 0.00 | 0.00 | 0.00 | 54 | 1027.9 |
| 20260831041526 | 20 | 255 | 1.6 | 11.3 | 0.00 | 0.00 | 0.00 | 53 | 1028.1 |
| 20260831040011 | 20 | 263 | 1.6 | 14.5 | 0.00 | 0.00 | 0.00 | 56 | 1028.2 |
| 20260831034556 | 20 | 107 | 1.6 | 9.7 | 0.00 | 0.00 | 0.00 | 55 | 1028.4 |
| 20260831033049 | 20 | 113 | 0.0 | 8.0 | 0.00 | 0.00 | 0.00 | 52 | 1028.6 |
| 20260831031540 | 19 | 233 | 3.2 | 8.0 | 0.00 | 0.00 | 0.00 | 57 | 1028.6 |
| 20260831030027 | 19 | 224 | 1.6 | 8.0 | 0.00 | 0.00 | 0.00 | 57 | 1028.9 |
| 20260831024524 | 19 | 309 | 1.6 | 6.4 | 0.00 | 0.00 | 0.00 | 57 | 1029.1 |
| 20260831023001 | 18 | 181 | 1.6 | 8.0 | 0.00 | 0.00 | 0.00 | 57 | 1029.5 |
| 20260831021546 | 18 | 220 | 1.6 | 6.4 | 0.00 | 0.00 | 0.00 | 59 | 1029.8 |
| 20260831020039 | 18 | 173 | 1.6 | 6.4 | 0.00 | 0.00 | 0.00 | 62 | 1030.0 |
| 20260831014525 | 18 | 164 | 1.6 | 6.4 | 0.00 | 0.00 | 0.00 | 61 | 1030.1 |
| 20260831013035 | 18 | 153 | 3.2 | 8.0 | 0.00 | 0.00 | 0.00 | 60 | 1030.1 |
| 20260831011555 | 18 | 227 | 3.2 | 6.4 | 0.00 | 0.00 | 0.00 | 61 | 1030.0 |
| 20260831010038 | 18 | 198 | 1.6 | 6.4 | 0.00 | 0.00 | 0.00 | 61 | 1030.0 |
| 20260831004531 | 18 | 196 | 3.2 | 8.0 | 0.00 | 0.00 | 0.00 | 60 | 1030.1 |
| 20260831003021 | 17 | 230 | 1.6 | 6.4 | 0.00 | 0.00 | 0.00 | 62 | 1030.1 |
| 20260831001601 | 17 | 214 | 1.6 | 4.8 | 0.00 | 0.00 | 0.00 | 59 | 1030.1 |
| 20260831000050 | 16 | 174 | 0.0 | 0.0 | 0.00 | 0.00 | 0.00 | 63 | 1030.2 |
| 20260830234536 | 16 | 340 | 0.0 | 0.0 | 0.00 | 0.00 | 0.00 | 63 | 1030.4 |
| 20260830233022 | 15 | 27 | 0.0 | 0.0 | 0.00 | 0.00 | 0.00 | 66 | 1030.3 |
| 20260830231517 | 14 | 148 | 0.0 | 0.0 | 0.00 | 0.00 | 0.00 | 69 | 1030.2 |
| 20260830230001 | 14 | 285 | 0.0 | 1.6 | 0.00 | 0.00 | 0.00 | 73 | 1030.4 |
| 20260830224506 | 13 | 290 | 0.0 | 1.6 | 0.00 | 0.00 | 0.00 | 75 | 1030.3 |
| 20260830223047 | 12 | 290 | 0.0 | 1.6 | 0.00 | 0.00 | 0.00 | 75 | 1030.4 |
| 20260830221527 | 12 | 290 | 0.0 | 1.6 | 0.00 | 0.00 | 0.00 | 77 | 1030.1 |
| 20260830220021 | 10 | 294 | 1.6 | 1.6 | 0.00 | 0.00 | 0.00 | 86 | 1030.1 |
| 20260830214518 | 8 | 15 | 0.0 | 0.0 | 0.00 | 0.00 | 0.00 | 95 | 1030.0 |
| 20260830213004 | 7 | 15 | 0.0 | 0.0 | 0.00 | 0.00 | 0.00 | 95 | 1029.9 |
| 20260830211603 | 6 | 15 | 0.0 | 0.0 | 0.00 | 0.00 | 0.00 | 95 | 1029.9 |
| 20260830210110 | 6 | 15 | 0.0 | 0.0 | 0.00 | 0.00 | 0.00 | 95 | 1029.9 |
| 20260830204609 | 6 | 15 | 0.0 | 0.0 | 0.00 | 0.00 | 0.00 | 92 | 1029.7 |
| 20260830203052 | 6 | 15 | 0.0 | 0.0 | 0.00 | 0.00 | 0.00 | 91 | 1029.6 |
| 20260830201550 | 6 | 15 | 0.0 | 0.0 | 0.00 | 0.00 | 0.00 | 92 | 1029.6 |
| 20260830200105 | 5 | 15 | 0.0 | 0.0 | 0.00 | 0.00 | 0.00 | 91 | 1029.5 |
| 20260830194556 | 5 | 15 | 0.0 | 0.0 | 0.00 | 0.00 | 0.00 | 90 | 1029.2 |
| 20260830193039 | 5 | 15 | 0.0 | 0.0 | 0.00 | 0.00 | 0.00 | 89 | 1029.1 |
| 20260830191529 | 5 | 15 | 0.0 | 0.0 | 0.00 | 0.00 | 0.00 | 87 | 1029.2 |
| 20260830190033 | 6 | 15 | 0.0 | 0.0 | 0.00 | 0.00 | 0.00 | 87 | 1029.2 |
| 20260830184529 | 6 | 15 | 0.0 | 0.0 | 0.00 | 0.00 | 0.00 | 87 | 1029.3 |
| 20260830183026 | 6 | 15 | 0.0 | 0.0 | 0.00 | 0.00 | 0.00 | 86 | 1029.3 |
| 20260830181531 | 6 | 15 | 0.0 | 0.0 | 0.00 | 0.00 | 0.00 | 85 | 1029.3 |
| 20260830180025 | 6 | 15 | 0.0 | 0.0 | 0.00 | 0.00 | 0.00 | 85 | 1029.4 |
| 20260830174521 | 6 | 15 | 0.0 | 0.0 | 0.00 | 0.00 | 0.00 | 85 | 1029.3 |
| 20260830173016 | 7 | 15 | 0.0 | 1.6 | 0.00 | 0.00 | 0.00 | 84 | 1029.5 |
| 20260830171603 | 7 | 235 | 0.0 | 0.0 | 0.00 | 0.00 | 0.00 | 84 | 1029.4 |
| 20260830170010 | 6 | 234 | 0.0 | 0.0 | 0.00 | 0.00 | 0.00 | 84 | 1029.5 |
| 20260830164603 | 6 | 234 | 0.0 | 0.0 | 0.00 | 0.00 | 0.00 | 85 | 1029.5 |
| 20260830163059 | 6 | 235 | 0.0 | 0.0 | 0.00 | 0.00 | 0.00 | 84 | 1029.5 |
| 20260830161601 | 6 | 234 | 0.0 | 0.0 | 0.00 | 0.00 | 0.00 | 83 | 1029.5 |
| 20260830160035 | 7 | 234 | 0.0 | 0.0 | 0.00 | 0.00 | 0.00 | 83 | 1029.6 |
| 20260830154525 | 6 | 234 | 0.0 | 0.0 | 0.00 | 0.00 | 0.00 | 83 | 1029.7 |
| 20260830153039 | 7 | 234 | 0.0 | 0.0 | 0.00 | 0.00 | 0.00 | 80 | 1029.8 |
| 20260830151507 | 7 | 234 | 0.0 | 0.0 | 0.00 | 0.00 | 0.00 | 81 | 1029.9 |
| 20260830150112 | 7 | 234 | 0.0 | 0.0 | 0.00 | 0.00 | 0.00 | 81 | 1029.9 |
| 20260830144603 | 7 | 235 | 0.0 | 0.0 | 0.00 | 0.00 | 0.00 | 81 | 1030.0 |
| 20260830143048 | 7 | 234 | 0.0 | 0.0 | 0.00 | 0.00 | 0.00 | 83 | 1029.9 |
| 20260830141529 | 7 | 234 | 0.0 | 0.0 | 0.00 | 0.00 | 0.00 | 83 | 1029.8 |
| 20260830140014 | 7 | 234 | 0.0 | 0.0 | 0.00 | 0.00 | 0.00 | 84 | 1029.8 |
| 20260830134511 | 7 | 235 | 0.0 | 0.0 | 0.00 | 0.00 | 0.00 | 83 | 1029.9 |
| 20260830133004 | 8 | 235 | 0.0 | 0.0 | 0.00 | 0.00 | 0.00 | 83 | 1030.0 |
| 20260830131625 | 8 | 235 | 0.0 | 0.0 | 0.00 | 0.00 | 0.00 | 84 | 1030.0 |
| 20260830130100 | 8 | 235 | 0.0 | 0.0 | 0.00 | 0.00 | 0.00 | 83 | 1030.0 |
| 20260830124551 | 8 | 235 | 0.0 | 0.0 | 0.00 | 0.00 | 0.00 | 82 | 1029.9 |
| 20260830123045 | 8 | 234 | 0.0 | 0.0 | 0.00 | 0.00 | 0.00 | 81 | 1030.1 |
| 20260830121552 | 8 | 235 | 0.0 | 0.0 | 0.00 | 0.00 | 0.00 | 81 | 1029.9 |
| 20260830120048 | 8 | 234 | 0.0 | 0.0 | 0.00 | 0.00 | 0.00 | 80 | 1030.1 |
| 20260830114547 | 9 | 234 | 0.0 | 0.0 | 0.00 | 0.00 | 0.00 | 78 | 1030.1 |
| 20260830113038 | 9 | 234 | 0.0 | 0.0 | 0.00 | 0.00 | 0.00 | 78 | 1030.1 |
| 20260830111530 | 9 | 235 | 0.0 | 0.0 | 0.00 | 0.00 | 0.00 | 78 | 1030.0 |
| 20260830110022 | 9 | 234 | 0.0 | 0.0 | 0.00 | 0.00 | 0.00 | 79 | 1029.9 |
| 20260830104524 | 10 | 234 | 0.0 | 0.0 | 0.00 | 0.00 | 0.00 | 78 | 1029.9 |
| 20260830103025 | 10 | 235 | 0.0 | 0.0 | 0.00 | 0.00 | 0.00 | 77 | 1029.8 |
| 20260830101520 | 10 | 234 | 0.0 | 0.0 | 0.00 | 0.00 | 0.00 | 78 | 1029.7 |
| 20260830100023 | 11 | 234 | 0.0 | 0.0 | 0.00 | 0.00 | 0.00 | 76 | 1029.6 |
| 20260830094530 | 11 | 229 | 0.0 | 0.0 | 0.00 | 0.00 | 0.00 | 77 | 1029.6 |
| 20260830093025 | 11 | 229 | 0.0 | 0.0 | 0.00 | 0.00 | 0.00 | 74 | 1029.7 |
| 20260830091542 | 11 | 228 | 0.0 | 0.0 | 0.00 | 0.00 | 0.00 | 71 | 1029.2 |
| 20260830090024 | 12 | 228 | 0.0 | 0.0 | 0.00 | 0.00 | 0.00 | 67 | 1029.1 |
| 20260830084509 | 11 | 172 | 0.0 | 0.0 | 0.00 | 0.00 | 0.00 | 71 | 1028.8 |
| 20260830083001 | 11 | 172 | 0.0 | 0.0 | 0.00 | 0.00 | 0.00 | 72 | 1028.7 |
| 20260830081558 | 11 | 172 | 0.0 | 0.0 | 0.00 | 0.00 | 0.00 | 72 | 1028.5 |
| 20260830080057 | 12 | 172 | 0.0 | 0.0 | 0.00 | 0.00 | 0.00 | 67 | 1028.3 |
| 20260830074559 | 13 | 172 | 0.0 | 0.0 | 0.00 | 0.00 | 0.00 | 64 | 1028.4 |
| 20260830073035 | 15 | 172 | 0.0 | 0.0 | 0.00 | 0.00 | 0.00 | 62 | 1028.5 |
| 20260830071538 | 16 | 172 | 0.0 | 0.0 | 0.00 | 0.00 | 0.00 | 57 | 1028.4 |
| 20260830070039 | 18 | 172 | 0.0 | 0.0 | 0.00 | 0.00 | 0.00 | 51 | 1028.2 |
| 20260830064517 | 20 | 172 | 0.0 | 0.0 | 0.00 | 0.00 | 0.00 | 44 | 1028.2 |
| 20260830063002 | 20 | 154 | 0.0 | 3.2 | 0.00 | 0.00 | 0.00 | 41 | 1028.1 |
| 20260830061553 | 20 | 262 | 0.0 | 3.2 | 0.00 | 0.00 | 0.00 | 44 | 1028.0 |
| 20260830060034 | 19 | 96 | 0.0 | 9.7 | 0.00 | 0.00 | 0.00 | 43 | 1028.1 |